Location: ????????
(55.0559°N, 39.1270°E)
Time: 09:09:52
(UTC+00:00)

Cosmos 2297 - Pass Details

Date: 15 November 2025
Orbit: 836 x 856 km, 71.0° (Epoch: 14 December)

Event Time Altitude Azimuth Distance (km) Brightness Sun altitude
Exits shadow 03:35:52 12° 311° (NW) 2,341 5.5 -11.2°
Maximum altitude 03:40:23 31° 253° (WSW) 1,427 4.5 -10.6°
Drops below altitude 10° 03:45:15 10° 193° (SSW) 2,447 6.2 -10.0°
Sets 03:47:54 0° 183° (S) 3,375 7.0 -9.6°
